Content
SEND FEEDBACK

Daily
Averages
Monthly
Summary
United States of America

GENOA, NEVADA


Home > North America > United States > Nevada
Elevation: 733 feet     Latitude: 38 59N     Longitude: 119 53W

WEATHER
 
SELECT A DAY
Number of Records: 174,493;   Date Range: 1/1/95 - 8/12/14
 
SHARE

PRINT THIS DATA

[ ← Previous Day ]
WEATHER ALMANAC - JANUARY 31, 2013
[ Next Day → ]
[ °C ]   °F
Weather ElementAverageHighLow
Temperature31.5 °F48.9 °F (11:53 am)17.1 °F (7:53 am)
Dewpoint19.6 °F28.9 °F (1:53 pm)12 °F (7:53 am)
Humidity64.3 %85 % (3:53 am)33 % (11:53 am)
Barometer30.36 in30.48 in (7:53 am)30.27 in (2:53 pm)
Wind Speed1.9 mph9.2 mph (12:53 pm)
Weather ElementAverage
Visibility10 mi
Wind DirectionNNE (38.6 °)

Weather ElementTotal
Precipitation---
Heating Degree Days32 (Base 65)
Averaged from 22 records on January 31, 2013
WEATHER CONDITIONS BREAKOUT
WIND DIRECTION BREAKOUT
WEATHER BY HOUR - JANUARY 31, 2013
[ °C ]   °F
Local TimeTemperatureDewpointHumidityBarometerVisibilityWind DirectionWind SpeedGust SpeedPrecipitationEventsConditions
1:53 AM21.9 °F17.1 °F82 %30.38 in10.0 miCalmClear
2:53 AM21.0 °F16.0 °F81 %30.38 in10.0 miCalmClear
3:53 AM19.9 °F16.0 °F85 %30.38 in10.0 miCalmClear
4:53 AM19.0 °F14.0 °F81 %30.41 in10.0 miSouth (190°)3.5 mphClear
5:53 AM18.0 °F14.0 °F84 %30.43 in10.0 miCalmClear
6:53 AM19.0 °F14.0 °F81 %30.43 in10.0 miCalmClear
7:53 AM17.1 °F12.0 °F81 %30.48 in10.0 miSouth (190°)5.8 mphClear
8:53 AM25.0 °F18.0 °F75 %30.44 in10.0 miCalmClear
9:53 AM33.1 °F19.0 °F56 %30.41 in10.0 miCalmClear
10:53 AM44.1 °F21.9 °F42 %30.36 in10.0 miCalmClear
11:53 AM48.9 °F21.0 °F33 %30.32 in10.0 miCalmClear
12:53 PM45.0 °F27.0 °F49 %30.30 in10.0 miNNE (30°)9.2 mphClear
1:53 PM45.0 °F28.9 °F53 %30.29 in10.0 miNE (40°)9.2 mphClear
2:53 PM48.0 °F28.0 °F46 %30.27 in10.0 miNNE (30°)6.9 mphClear
3:53 PM46.0 °F25.0 °F44 %30.27 in10.0 miCalmClear
4:53 PM43.0 °F19.9 °F40 %30.28 in10.0 miCalmClear
5:53 PM36.0 °F23.0 °F59 %30.32 in10.0 miCalmClear
6:53 PM33.1 °F21.9 °F64 %30.35 in10.0 miCalmClear
7:53 PM30.0 °F21.0 °F69 %30.38 in10.0 miSSW (200°)3.5 mphClear
8:53 PM27.0 °F19.0 °F72 %30.36 in10.0 miSouth (170°)4.6 mphClear
9:53 PM27.0 °F17.1 °F66 %30.32 in10.0 miCalmClear
10:53 PM25.0 °F17.1 °F72 %30.29 in10.0 miCalmClear
Hourly data recorded from KTVL, located miles away from Genoa, Nevada







STORIES FROM OUR PARTNERS